THORAD AGENA D DEB, 42532

Orbit data source: Space-Track

THORAD AGENA D DEB, 42532 is space debris in LEO originally from a launch on Wed, 08 Apr 1970 UTC launched from the Air Force Western Test Range (AFWTR). Debris objects in space refer to the collection of defunct objects orbiting the Earth. Examples of debris include non-operational satellites, rocket bodies, and fragments generated from explosions, collisions, or faulty payload assembly.

Loading next visibility...
THORAD AGENA D DEB details
Identifier
42532, 1970-025SN
Orbit
LEO
Last TLE update7 hours ago
Origin
Flag of USNASA LeRC (US)
ManufacturerUnknown
MissionSpacecraft
Bus & MotorUnknown
MassUnknown
Launch date (UTC)
1970-04-08 (55 years ago)
Launch vehicleUnknown
Launch site
Air Force Western Test Range (AFWTR)
Object type
Payload
Rocket body
Debris
Shape & HBRUnknown
Radar Cross SectionSmall (<0.1 m²)

Expand to show TLE details & history

TLE from 7 hours ago
0 THORAD AGENA D DEB
1 42532U 70025SN  24339.90665787  .00004625  00000-0  31875-2 0  9992
2 42532  99.9460 221.1304 0004476  13.0357 347.0919 13.99815600561331
Epoch: 2024-12-04T21:45Z
Definitive object data (Epoch: 2024-12-04T21:45:35.239Z)
Latitude-0.00006°
Longitude-179.4615°
Altitude894.105 km
Speed7.407 km/s
True Right ascension14h 44m 31s
True Declination0° 00' 00"
Sunlit
Object was in daylight at TLE epoch
Visualization TLE readout
Latitude-0.87861°
Longitude-178.99806°
Altitude894.216 km
Speed7.407 km/s
Apparent Right ascension14h 41m 34s
Apparent Declination-18° 58' 07"
Sunlit
Object is in daylight
Visualization observer readout
Local Sidereal Time02:34:28
Azimuth355.303° N
Elevation-68.997°
Doppler factor1
Orbital elements
Apogee altitude894.936 km
Perigee altitude888.428 km
Semi-major axis7,269.819 km
Eccentricity0.0004476
Inclination99.946°
RAAN221.1304°
Arg. of periapsis13.0357°
True anomaly347.08044°
Mean anomaly347.0919°
Eccentric anomaly347.08617°
Mean motion3.50153 °/min
BSTAR0.0031875
Orbital period102.81 mins
Loading maneuver chart data...

THORAD AGENA D DEB Visibility forecast

Observer location: undefined°, undefined

Span
Click to sort rows by Start time (UTC) header in descending order
Start Az.
Max El. time (UTC)
Max El. Az.
Max El.
End time (UTC)
End Az.
10 mins2024-12-05 05:12:02.100Z17.124° NNE2024-12-05 05:17:02.100Z80.571° E44.715°2024-12-05 05:22:02.100Z193.031° SSW
4 mins2024-12-05 06:56:02.100Z323.302° NNW2024-12-05 06:58:02.100Z300.169° NW14.522°2024-12-05 07:00:02.100Z277.639° WNW
7 mins2024-12-05 15:05:02.100Z101.68° ESE2024-12-05 15:08:02.100Z58.369° ENE23.133°2024-12-05 15:12:02.100Z11.346° NNE
9 mins2024-12-05 16:45:02.100Z193.431° SSW2024-12-05 16:49:02.100Z263.291° W35.746°2024-12-05 16:54:02.100Z331.267° NNW
|